AirNav   Air Wisconsin Up To $57,000 Bonus
 
 891 users online  

5HO Hope Airport
Hope, Alaska, USA

GOING TO HOPE?


FAA INFORMATION EFFECTIVE 18 JULY 2019

Location

FAA Identifier: 5HO
Lat/Long: 60-54-26.1100N / 149-37-22.1200W
60-54.435167N / 149-37.368667W
60.9072528 / -149.6228111
(estimated)
Elevation: 193.9 ft. / 59 m (estimated)
Variation: 25E (1985)
From city: 1 mile SE of HOPE, AK
Time zone: UTC -8 (UTC -9 during Standard Time)
Zip code: 99605

Airport Operations

Airport use: Open to the public
Activation date: 11/1950
Control tower: no
ARTCC: ANCHORAGE CENTER
FSS: KENAI FLIGHT SERVICE STATION [907-283-8469]
NOTAMs facility: ENA (NOTAM-D service available)
Attendance: UNATNDD
Wind indicator: yes, WINDSOCKS LOCATED AT BOTH ENDS OF RWY 17/35.
Segmented circle: yes

Airport Communications

CTAF: 122.9
WX ASOS at ANC (19 nm NW): PHONE 907-271-5278
WX ASOS at MRI (19 nm N): 124.25 (907-271-5277)
WX ASOS at LHD (19 nm NW): PHONE 907-245-1618

Nearby radio navigation aids

VOR radial/distance  VOR name  Freq  Var
TEDr130/18.5ANCHORAGE VOR/DME113.1518E

 
NDB name  Hdg/Dist  Freq  Var  ID
CAMPBELL LAKE126/20.133816ECMQ -.-. -- --.-

Airport Services

Airframe service: NONE
Powerplant service: NONE
Bottled oxygen: NONE
Bulk oxygen: NONE

Runway Information

Runway 17/35

Dimensions: 2040 x 60 ft. / 622 x 18 m
Surface: gravel, in fair condition
Runway edge markings: NSTD MKGS RYS 17 & 35; RWY THLDS MKD WITH PLASTIC MARKERS.
Gradient: S.
RUNWAY 17  RUNWAY 35
Latitude: 60-54.601333N60-54.269000N
Longitude: 149-37.327333W149-37.410000W
Elevation: 159.3 ft.193.9 ft.
Traffic pattern: leftleft
Markings: NSTDNSTD
Obstructions: 56 ft. trees, 110 ft. left and right of centerline51 ft. trees, 110 ft. left and right of centerline

Airport Ownership and Management from official FAA records

Ownership: Publicly-owned
Owner: ALASKA DOT&PF CENTRAL REGION
P.O. BOX 196900
ANCHORAGE, AK 99519-6900
Phone 907-338-1466
Manager: DREW MOTSINGER
STATE OF AK - DOTPF, 35200 HOPE HWY
HOPE, AK 99605
Phone 907-269-5672
FOREMAN FROM SILVERTIP STATION.

Airport Operational Statistics

Aircraft based on the field: 8
Single engine airplanes: 8
    
Aircraft operations: avg 40/month *
58% local general aviation
31% transient general aviation
10% air taxi
* for 12-month period ending 31 December 2017

Additional Remarks

BE ALERT RWY CONDITION NOT MONITORED. RECOMMEND VISUAL INSPECTION PRIOR TO LANDING.
SAFETY AREA NORTH END CLEARED 470 FT, SAFETY AREA SOUTH END CLEARED 580 FT.

Instrument Procedures

There are no published instrument procedures at 5HO.

Some nearby airports with instrument procedures:

PANC - Ted Stevens Anchorage International Airport (19 nm NW)
PAMR - Merrill Field Airport (19 nm N)
PAED - Elmendorf Air Force Base (21 nm N)
PAFR - Bryant Army Airfield Heliport (22 nm N)
PAGQ - Big Lake Airport (38 nm N)
 
Loc | Ops | Rwys | IFR | FBO | Links
Com | Nav | Svcs | Stats | Notes

Crowley
 
Area around 5HO (Hope Airport)
 
Road maps at: MapQuest Bing Google
 
Aerial photo
WARNING: Photo may not be current or correct
Aerial photo of 5HO (Hope Airport)
Photo by Jonathan Tack
Photo taken 07-Aug-2006

Do you have a better or more recent aerial photo of Hope Airport that you would like to share? If so, please send us your photo.

 
Sectional chart

 
Airport distance calculator
Flying to Hope Airport? Find the distance to fly.

From to 5HO

Sunrise and sunset
Times for 17-Jul-2019
 Local
(UTC-8)
 Zulu
(UTC)
Morning civil twilight03:3511:35
Sunrise04:5912:59
Sunset23:1007:10
Evening civil twilight00:3408:34

Current date and time
Zulu (UTC)  18-Jul-2019 03:39:17
Local (UTC-8)  17-Jul-2019 19:39:17
 
METAR
PANC 
19nm NW 
180253Z 24008KT 10SM FEW045 SCT100 BKN250 22/12 A2961 RMK AO2 SLP026 T02220122 51003 $
PALH 
19nm NW 
180253Z 28008KT 10SM CLR 23/12 A2961 RMK AO2 SLP028 T02280122 52004
PAMR 
20nm N 
180253Z 29008KT 10SM CLR 21/12 A2961 RMK AO2 SLP025 T02110117 53006
PAED 
21nm N 
180256Z 26010KT 10SM SCT050 SCT200 21/13 A2961 RMK AO2A SLP022 T02080127 52006 $
PAFR 
22nm N 
180258Z AUTO 26017G21KT 10SM CLR 22/12 A2959 RMK AO2 SLP025 T02200120 53004 $
PATO 
24nm E 
180253Z AUTO VRB05KT 10SM CLR 22/13 A2959 RMK AO2 SLP019 T02220128 53001 TSNO
PABV 
31nm N 
180256Z AUTO 29003KT 10SM CLR 22/14 A2962 RMK AO2 SLP034 T02170139 53003
TAF
PANC 
19nm NW 
171720Z 1718/1824 26007KT P6SM FEW010 BKN200 FM180800 18005KT P6SM SCT080 BKN120
PAED 
21nm N 
171900Z 1719/1901 22009KT 9999 SCT015 SCT200 QNH2961INS BECMG 1809/1810 VRB06KT 9999 FEW030 QNH2975INS TX24/1806Z TN14/1812Z
NOTAMs
Click for the latest NOTAMs
NOTAMs are issued by the DoD/FAA and will open in a separate window not controlled by AirNav.

 

 
 

Would you like to see your business listed on this page?

 If your business provides an interesting product or service to pilots, flight crews, aircraft, or users of the Hope Airport, you should consider listing it here.  To start the listing process, click on the button below
 
Add a business
 

Other Pages about Hope Airport

Update a link
 
Copyright © AirNav, LLC. All rights reserved. Privacy Policy  Contact